Lincoln, NM

2:54 PM MST on February 12, 2016 (GMT -0700)
Sierra Blanca Regional

Weather History for KSRR - December, 2012

Change the Weather History Date:

Tuesday, December 18, 2012

  Actual Average (WUND) Record (WUND)
Temperature  
Mean Temperature 46 °F -  
Max Temperature 57 °F - - (-1)
Min Temperature 35 °F - - (-1)
Degree Days  
Heating Degree Days 19    
Moisture  
Dew Point 13 °F    
Average Humidity 28    
Maximum Humidity 45    
Minimum Humidity 16    
Precipitation  
Precipitation 0.00 in - - ()
Sea Level Pressure  
Sea Level Pressure 29.88 in    
Wind  
Wind Speed 10 mph (SW)    
Max Wind Speed 29 mph    
Max Gust Speed 41 mph    
Visibility 10 miles    
Events      
Averages and records for this station are not official NWS values.
T = Trace of Precipitation, MM = Missing Value Source: NWS Daily Summary

Daily Weather History Graph

Daily Weather History Graph

Search for Another Location

Airport or City:

Trip Planner

Search our weather history database for the weather conditions in past years. The results will help you decide how hot, cold, wet, or windy it might be!

Date:

Astronomy

Dec. 18, 2012 Rise Set
Actual Time 7:00 AM MST 4:57 PM MST
Civil Twilight 6:33 AM MST 5:24 PM MST
Nautical Twilight 6:02 AM MST 5:55 PM MST
Astronomical Twilight 5:31 AM MST 6:26 PM MST
Moon 10:57 AM MST (12/18) 11:08 PM MST (12/18)
Length of Visible Light 10h 51m
Length of Day
9h 56m
Waxing Crescent, 35% of the Moon is Illuminated
Dec 18
Waxing Crescent
Dec 19
First Quarter
Dec 28
Full
Jan 4
Last Quarter
Jan 11
New

Hourly Weather History & Observations

Time (MST) Temp. Windchill Dew Point Humidity Pressure Visibility Wind Dir Wind Speed Gust Speed Precip Events Conditions
12:15 AM 37.4 °F 34.9 °F 17.6 °F 45% 29.97 in 10.0 mi North 3.5 mph - N/A   Clear
12:35 AM 37.4 °F - 15.8 °F 41% 29.97 in 10.0 mi Calm Calm - N/A   Clear
12:55 AM 37.4 °F 30.8 °F 14.0 °F 38% 29.96 in 10.0 mi West 9.2 mph - N/A   Clear
1:15 AM 37.4 °F 30.8 °F 12.2 °F 36% 29.96 in 10.0 mi WSW 9.2 mph - N/A   Clear
1:35 AM 37.4 °F 29.8 °F 10.4 °F 33% 29.95 in 10.0 mi West 11.5 mph - N/A   Clear
1:55 AM 41.0 °F 36.4 °F 6.8 °F 24% 29.95 in 10.0 mi WSW 6.9 mph - N/A   Clear
2:15 AM 39.2 °F 33.0 °F 5.0 °F 24% 29.94 in 10.0 mi SSW 9.2 mph - N/A   Clear
2:35 AM 39.2 °F 31.6 °F 6.8 °F 26% 29.94 in 10.0 mi SW 12.7 mph - N/A   Clear
2:55 AM 39.2 °F 32.5 °F 6.8 °F 26% 29.93 in 10.0 mi West 10.4 mph - N/A   Clear
3:15 AM 41.0 °F 35.8 °F 5.0 °F 23% 29.93 in 10.0 mi West 8.1 mph - N/A   Clear
3:35 AM 41.0 °F 34.7 °F 5.0 °F 23% 29.92 in 10.0 mi WSW 10.4 mph 16.1 mph N/A   Clear
3:55 AM 41.0 °F 34.3 °F 5.0 °F 23% 29.92 in 10.0 mi SW 11.5 mph - N/A   Clear
4:15 AM 41.0 °F 32.5 °F 5.0 °F 23% 29.91 in 10.0 mi SW 17.3 mph - N/A   Clear
4:55 AM 41.0 °F 33.5 °F 5.0 °F 23% 29.91 in 10.0 mi SW 13.8 mph 20.7 mph N/A   Clear
5:15 AM 41.0 °F 33.5 °F 3.2 °F 21% 29.91 in 10.0 mi SW 13.8 mph - N/A   Clear
5:35 AM 41.0 °F 32.8 °F 5.0 °F 23% 29.91 in 10.0 mi SW 16.1 mph 23.0 mph N/A   Clear
5:55 AM 41.0 °F 32.2 °F 5.0 °F 23% 29.91 in 10.0 mi SW 18.4 mph 26.5 mph N/A   Clear
6:15 AM 41.0 °F 34.3 °F 6.8 °F 24% 29.92 in 10.0 mi SW 11.5 mph 24.2 mph N/A   Clear
6:35 AM 41.0 °F 31.6 °F 5.0 °F 23% 29.91 in 10.0 mi SW 20.7 mph - N/A   Clear
6:55 AM 41.0 °F 31.9 °F 5.0 °F 23% 29.91 in 10.0 mi SW 19.6 mph 26.5 mph N/A   Clear
7:15 AM 41.0 °F 32.5 °F 5.0 °F 23% 29.91 in 10.0 mi SW 17.3 mph 26.5 mph N/A   Clear
7:35 AM 41.0 °F 35.2 °F 5.0 °F 23% 29.92 in 10.0 mi WSW 9.2 mph - N/A   Clear
7:55 AM 35.6 °F 31.7 °F 10.4 °F 35% 29.92 in 10.0 mi ENE 4.6 mph - N/A   Clear
8:15 AM 37.4 °F 32.1 °F 14.0 °F 38% 29.93 in 10.0 mi NE 6.9 mph - N/A   Clear
8:35 AM 39.2 °F 35.9 °F 14.0 °F 36% 29.93 in 10.0 mi East 4.6 mph - N/A   Clear
8:55 AM 41.0 °F 36.4 °F 14.0 °F 33% 29.94 in 10.0 mi NE 6.9 mph - N/A   Clear
9:15 AM 42.8 °F 38.6 °F 15.8 °F 34% 29.94 in 10.0 mi NE 6.9 mph - N/A   Clear
9:35 AM 44.6 °F 39.7 °F 15.8 °F 31% 29.95 in 10.0 mi NNE 9.2 mph - N/A   Clear
9:55 AM 46.4 °F 42.9 °F 15.8 °F 29% 29.95 in 10.0 mi NE 6.9 mph - N/A   Clear
10:15 AM 48.2 °F - 14.0 °F 25% 29.95 in 10.0 mi NE 6.9 mph - N/A   Clear
10:35 AM 50.0 °F - 14.0 °F 24% 29.94 in 10.0 mi Calm Calm - N/A   Clear
10:55 AM 55.4 °F - 12.2 °F 18% 29.93 in 10.0 mi Calm Calm - N/A   Clear
11:15 AM 55.4 °F - 10.4 °F 17% 29.90 in 10.0 mi NE 11.5 mph 16.1 mph N/A   Clear
11:35 AM 57.2 °F - 10.4 °F 16% 29.90 in 10.0 mi SE 3.5 mph - N/A   Clear
11:55 AM 55.4 °F - 12.2 °F 18% 29.89 in 10.0 mi ENE 8.1 mph - N/A   Clear
12:15 PM 55.4 °F - 14.0 °F 20% 29.90 in 10.0 mi SW 3.5 mph - N/A   Partly Cloudy
12:35 PM 55.4 °F - 10.4 °F 17% 29.88 in 10.0 mi SW 18.4 mph 28.8 mph N/A   Clear
12:55 PM 55.4 °F - 12.2 °F 18% 29.87 in 10.0 mi SW 25.3 mph 36.8 mph N/A   Clear
1:15 PM 55.4 °F - 15.8 °F 21% 29.86 in 10.0 mi SW 20.7 mph 40.3 mph N/A   Clear
1:35 PM 55.4 °F - 15.8 °F 21% 29.85 in 10.0 mi SW 17.3 mph 26.5 mph N/A   Clear
1:55 PM 57.2 °F - 12.2 °F 17% 29.84 in 10.0 mi SW 25.3 mph 41.4 mph N/A   Clear
2:15 PM 55.4 °F - 14.0 °F 20% 29.84 in 10.0 mi WSW 18.4 mph 31.1 mph N/A   Clear
2:35 PM 55.4 °F - 12.2 °F 18% 29.83 in 10.0 mi SW 28.8 mph 36.8 mph N/A   Clear
2:55 PM 57.2 °F - 12.2 °F 17% 29.83 in 10.0 mi WSW 24.2 mph 34.5 mph N/A   Clear
3:15 PM 55.4 °F - 12.2 °F 18% 29.83 in 10.0 mi WSW 23.0 mph 34.5 mph N/A   Clear
3:35 PM 55.4 °F - 14.0 °F 20% 29.84 in 10.0 mi WSW 21.9 mph 33.4 mph N/A   Clear
3:55 PM 53.6 °F - 14.0 °F 21% 29.84 in 10.0 mi WSW 17.3 mph 29.9 mph N/A   Clear
4:15 PM 51.8 °F - 15.8 °F 24% 29.84 in 10.0 mi WSW 12.7 mph 29.9 mph N/A   Clear
4:35 PM 50.0 °F - 17.6 °F 28% 29.83 in 10.0 mi SSW 13.8 mph 20.7 mph N/A   Clear
4:55 PM 48.2 °F - 19.4 °F 32% 29.83 in 10.0 mi SSW 12.7 mph 18.4 mph N/A   Clear
5:15 PM 46.4 °F 41.1 °F 17.6 °F 32% 29.84 in 10.0 mi SW 11.5 mph 20.7 mph N/A   Clear
5:35 PM 46.4 °F 40.7 °F 17.6 °F 32% 29.84 in 10.0 mi SSW 12.7 mph 26.5 mph N/A   Clear
5:55 PM 46.4 °F 40.4 °F 17.6 °F 32% 29.83 in 10.0 mi SW 13.8 mph 21.9 mph N/A   Clear
6:15 PM 46.4 °F 39.2 °F 17.6 °F 32% 29.82 in 10.0 mi SW 18.4 mph 24.2 mph N/A   Clear
6:35 PM 46.4 °F 40.7 °F 19.4 °F 34% 29.83 in 10.0 mi SSW 12.7 mph 23.0 mph N/A   Clear
6:55 PM 46.4 °F 41.5 °F 17.6 °F 32% 29.84 in 10.0 mi SSW 10.4 mph 16.1 mph N/A   Clear
7:15 PM 46.4 °F 41.5 °F 19.4 °F 34% 29.84 in 10.0 mi SW 10.4 mph - N/A   Clear
7:35 PM 46.4 °F 41.5 °F 19.4 °F 34% 29.84 in 10.0 mi SSW 10.4 mph - N/A   Clear
7:55 PM 46.4 °F 41.5 °F 19.4 °F 34% 29.84 in 10.0 mi SSW 10.4 mph 16.1 mph N/A   Clear
8:15 PM 46.4 °F 43.5 °F 19.4 °F 34% 29.84 in 10.0 mi WSW 5.8 mph - N/A   Clear
8:35 PM 46.4 °F 43.5 °F 17.6 °F 32% 29.83 in 10.0 mi SSW 5.8 mph - N/A   Clear
8:55 PM 46.4 °F 41.5 °F 17.6 °F 32% 29.84 in 10.0 mi WSW 10.4 mph 19.6 mph N/A   Clear
9:15 PM 46.4 °F - 17.6 °F 32% 29.84 in 10.0 mi Calm Calm - N/A   Clear
9:35 PM 46.4 °F 45.2 °F 17.6 °F 32% 29.83 in 10.0 mi South 3.5 mph - N/A   Clear
9:55 PM 46.4 °F 43.5 °F 17.6 °F 32% 29.82 in 10.0 mi SW 5.8 mph - N/A   Clear
10:15 PM 44.6 °F - 17.6 °F 34% 29.83 in 10.0 mi Calm Calm - N/A   Clear
10:35 PM 44.6 °F 42.2 °F 19.4 °F 37% 29.83 in 10.0 mi WNW 4.6 mph - N/A   Clear
10:55 PM 46.4 °F 42.9 °F 19.4 °F 34% 29.83 in 10.0 mi West 6.9 mph - N/A   Clear
11:15 PM 46.4 °F 42.9 °F 19.4 °F 34% 29.83 in 10.0 mi SW 6.9 mph 16.1 mph N/A   Clear
11:35 PM 44.6 °F 39.2 °F 19.4 °F 37% 29.81 in 10.0 mi South 10.4 mph 16.1 mph N/A   Clear
11:55 PM 44.6 °F 43.1 °F 17.6 °F 34% 29.80 in 10.0 mi SE 3.5 mph - N/A   Clear